[[{"header":{"parameterUnit":"m.s-1","parameterCategory":1,"la1":30.2991,"la2":30.254,"lo1":-89.0895,"lo2":-89.0444,"dy":0.0017,"dx":0.0017,"nx":28,"ny":28,"refTime":"2024-08-01T21:00:00:Z","depth":0,"parameterNumber":2,"parameterNumberName":"U-component_of_WINDS"},"data":[0,0,0,0,0,0,0,0,0,0,0,0,0,0,0,0,0,0,0,0,0,0,0,0,0,0,0,0,0,0,0,0,0,0,0,0,0,0,0,0,0,0,0,0,0,0,0,0,0,0,0,0,0,0,0,0,0,0,1.5897,1.5898,0,1.5981,1.5982,1.5983,1.6001,1.6001,1.6,1.6,1.6085,1.6088,1.6091,0,0,0,0,0,0,0,0,0,0,0,0,0,1.5754,1.5756,1.5897,1.5898,1.5899,1.5981,1.5982,1.5983,1.6001,1.6001,1.6,1.5999,1.6084,1.6088,1.6091,0,0,0,0,0,0,0,0,0,0,0,0,0,1.5824,1.5757,1.5897,1.5918,1.5921,1.598,1.5982,1.5983,1.6002,1.6001,1.6,1.5999,1.6083,1.6087,1.6092,1.6136,0,0,1.6105,1.6106,0,0,0,0,0,0,0,0,1.582,1.583,1.5914,1.5917,1.592,1.598,1.5963,1.6034,1.6002,1.5971,1.6,1.5999,1.6051,1.6058,1.6075,1.614,1.6143,1.6105,1.6108,1.6109,1.6111,0,0,0,0,0,0,0,1.5815,1.5826,1.593,1.5915,1.5919,1.5924,1.5933,1.5976,1.6015,1.5974,1.5975,1.5985,1.6052,1.6071,1.6078,1.6145,1.6105,1.6109,1.6111,1.6113,1.6248,1.6249,0,0,0,0,0,0,1.5807,1.5822,1.5928,1.5933,1.5867,1.5927,1.5937,1.5962,1.6015,1.6022,1.5985,1.5985,1.6064,1.6073,1.6081,1.6135,1.6109,1.6113,1.6116,1.6247,1.6248,1.6249,0,0,0,0,0,0,1.5804,1.5816,1.5924,1.5878,1.5892,1.593,1.5958,1.5964,1.5982,1.6023,1.603,1.5998,1.6064,1.6075,1.6121,1.6138,1.6115,1.6119,1.6246,1.6247,1.6249,1.6243,0,0,0,0,0,0,1.58,1.5815,1.5832,1.5878,1.5894,1.5964,1.5959,1.5966,1.599,1.599,1.6037,1.6044,1.6064,1.6115,1.6126,1.6143,1.6122,1.6244,1.6246,1.6248,1.6242,1.6244,1.6246,0,0,0,0,0,1.5794,1.5828,1.5833,1.5846,1.5917,1.5965,1.5974,1.5997,1.5991,1.6008,1.6035,1.6042,1.6134,1.612,1.6132,1.6151,1.6243,1.6246,1.6248,1.6241,1.6244,1.6246,0,0,0,0,0,0,1.5783,1.5834,1.584,1.589,1.5923,1.5968,1.5991,1.5999,1.6035,1.6034,1.6061,1.6071,1.6116,1.6139,1.6121,1.6196,1.6189,1.6193,1.6179,1.6182,1.6184,1.6178,1.6126,0,0,0,0,0,1.5786,1.5821,1.5864,1.5903,1.5919,1.5952,1.5974,1.5988,1.6024,1.6038,1.6068,1.6101,1.6138,1.6162,1.6198,1.6246,1.6255,1.6265,1.6267,1.6268,1.6272,1.6298,1.6302,1.6257,1.6257,1.6257,0,0,1.5793,1.5825,1.5845,1.5901,1.5929,1.5964,1.5964,1.6001,1.6027,1.6044,1.6089,1.6112,1.6152,1.6199,1.6221,1.6219,1.6287,1.6271,1.6272,1.6275,1.6301,1.6305,1.6309,1.6258,1.6258,1.6258,0,0,1.5823,1.5851,1.5886,1.5914,1.5955,1.5976,1.5985,1.6029,1.6044,1.6091,1.6103,1.6135,1.6198,1.6225,1.6247,1.6287,1.6295,1.6298,1.6309,1.6334,1.6337,1.634,1.6353,1.6358,1.6302,1.6302,1.6302,0,1.5826,1.5879,1.5903,1.594,1.5964,1.598,1.6016,1.6041,1.6092,1.6108,1.6104,1.6183,1.6211,1.6264,1.6273,1.6291,1.6301,1.6292,1.6335,1.6338,1.6342,1.6354,1.6359,1.6302,1.6302,1.6302,1.6302,0,1.5881,1.5917,1.5941,1.5989,1.6016,1.6052,1.6081,1.6105,1.6117,1.6139,1.6185,1.6219,1.6262,1.6276,1.6289,1.6331,1.6328,1.6329,1.6323,1.6346,1.6358,1.6363,1.6302,1.6302,1.6302,1.6302,0,0,1.5905,1.5966,1.5974,1.5996,1.6042,1.6071,1.6107,1.6149,1.6168,1.6203,1.6234,1.6286,1.6287,1.6312,1.6328,1.635,1.6378,1.6349,1.635,1.6352,1.6425,1.6423,1.6428,1.6384,1.6385,1.6386,1.6421,0,1.594,1.6005,1.6028,1.6082,1.6115,1.6131,1.6163,1.6194,1.6216,1.6247,1.6271,1.6307,1.6307,1.6322,1.6344,1.637,1.6393,1.6368,1.6412,1.6413,1.64,1.6435,1.6433,1.6465,1.6426,1.6427,1.6428,0,1.5989,1.6024,1.6081,1.6122,1.6137,1.6165,1.6204,1.6235,1.6271,1.6285,1.6312,1.6326,1.6364,1.6356,1.6408,1.6391,1.641,1.6425,1.6427,1.6431,1.6421,1.6439,1.6476,1.648,1.6436,1.6435,1.6435,0,1.6,1.6061,1.6103,1.6121,1.6171,1.619,1.6211,1.6247,1.627,1.6304,1.6319,1.6358,1.6379,1.6408,1.6432,1.6424,1.6482,1.6476,1.6494,1.6493,1.6504,1.6503,1.6544,1.6519,1.6519,1.6518,1.6518,0,1.6036,1.6069,1.6108,1.6133,1.6172,1.6197,1.6234,1.6257,1.6288,1.6318,1.6335,1.6362,1.6393,1.6424,1.6443,1.6483,1.6493,1.6504,1.6509,1.6502,1.6501,1.6515,1.6513,1.652,1.6519,1.6519,1.6519,0,1.6053,1.6081,1.6127,1.617,1.6182,1.6208,1.6245,1.627,1.6292,1.6329,1.634,1.6374,1.6412,1.6439,1.6488,1.6501,1.6543,1.6548,1.653,1.6532,1.6548,1.6546,1.6599,1.6606,1.6577,1.6577,1.6577,0,1.6074,1.61,1.6146,1.6167,1.6189,1.6223,1.6246,1.6272,1.6296,1.6339,1.6359,1.6398,1.643,1.649,1.6519,1.6556,1.6561,1.6577,1.6567,1.6559,1.656,1.6558,1.656,1.6578,1.6578,1.6579,1.6579,0,1.6107,1.6119,1.6152,1.619,1.6218,1.6249,1.6281,1.6297,1.6328,1.6354,1.6393,1.6418,1.6468,1.6506,1.6546,1.6568,1.6578,1.6582,1.6588,1.6581,1.6569,1.6574,1.6533,1.658,1.658,1.658,1.658,1.658,1.6126,1.615,1.6185,1.6222,1.6248,1.6277,1.6302,1.6327,1.636,1.6402,1.6416,1.6456,1.649,1.6545,1.6568,1.6599,1.6598,1.6607,1.6609,1.6611,1.661,1.6565,1.6606,1.6606,1.6606,1.6606,1.6606,0,1.6159,1.6182,1.6216,1.6259,1.6287,1.6295,1.633,1.6353,1.6388,1.642,1.6451,1.6495,1.6532,1.6564,1.6602,1.6621,1.6626,1.663,1.6628,1.6633,1.6609,1.6599,1.6624,1.6624,1.6624,1.6624,1.6624,1.6624,1.6179,1.6219,1.6235,1.6289,1.6312,1.6351,1.637,1.6397,1.6422,1.647,1.6501,1.6522,1.6553,1.6594,1.6627,1.6636,1.6649,1.6651,1.666,1.6637,1.6635,1.6632,1.6624,1.6653,1.6654,1.6681,1.6682,1.6682]},{"header":{"parameterUnit":"m.s-1","parameterCategory":1,"la1":30.2991,"la2":30.254,"lo1":-89.0895,"lo2":-89.0444,"dy":0.0017,"dx":0.0017,"nx":28,"ny":28,"refTime":"2024-08-01T21:00:00:Z","depth":0,"parameterNumber":3,"parameterNumberName":"V-component_of_WINDS"},"data":[0,0,0,0,0,0,0,0,0,0,0,0,0,0,0,0,0,0,0,0,0,0,0,0,0,0,0,0,0,0,0,0,0,0,0,0,0,0,0,0,0,0,0,0,0,0,0,0,0,0,0,0,0,0,0,0,0,0,3.6224,3.6224,0,3.6193,3.6193,3.6193,3.6151,3.615,3.6149,3.6149,3.6115,3.6115,3.6115,0,0,0,0,0,0,0,0,0,0,0,0,0,3.6247,3.6247,3.6224,3.6224,3.6224,3.6193,3.6193,3.6193,3.6151,3.615,3.6149,3.6148,3.6116,3.6115,3.6115,0,0,0,0,0,0,0,0,0,0,0,0,0,3.6229,3.6247,3.6224,3.6199,3.6197,3.6193,3.6193,3.6192,3.6151,3.615,3.6149,3.6148,3.6116,3.6115,3.6115,3.6134,0,0,3.6114,3.6114,0,0,0,0,0,0,0,0,3.623,3.6228,3.6203,3.6201,3.6198,3.6175,3.6189,3.6173,3.6151,3.6168,3.6148,3.6147,3.6136,3.6134,3.613,3.6132,3.6131,3.6114,3.6114,3.6113,3.6113,0,0,0,0,0,0,0,3.6231,3.6229,3.6212,3.6203,3.62,3.6189,3.6185,3.6185,3.6158,3.6167,3.6163,3.616,3.6134,3.6131,3.6129,3.613,3.6114,3.6114,3.6113,3.6113,3.6147,3.6148,0,0,0,0,0,0,3.6236,3.623,3.6213,3.6211,3.6212,3.619,3.6185,3.6183,3.6158,3.6153,3.6161,3.6159,3.6132,3.613,3.6128,3.6148,3.6113,3.6113,3.6113,3.6146,3.6147,3.6148,0,0,0,0,0,0,3.6237,3.6235,3.6214,3.622,3.6216,3.619,3.6188,3.6183,3.618,3.6154,3.6149,3.6163,3.6131,3.6128,3.6133,3.6147,3.6113,3.6113,3.6144,3.6146,3.6147,3.619,0,0,0,0,0,0,3.6238,3.6235,3.6242,3.622,3.6216,3.622,3.6189,3.6183,3.6179,3.6175,3.6154,3.615,3.613,3.6134,3.6133,3.6146,3.6112,3.6143,3.6145,3.6147,3.6187,3.6193,3.6197,0,0,0,0,0,3.6239,3.6255,3.6243,3.6241,3.6224,3.6221,3.6219,3.6196,3.6181,3.6187,3.6171,3.615,3.6146,3.6134,3.6133,3.6146,3.6142,3.6144,3.6147,3.6185,3.6191,3.6197,0,0,0,0,0,0,3.6279,3.6252,3.6238,3.6248,3.6237,3.6214,3.6221,3.6204,3.6197,3.6193,3.6165,3.6161,3.6169,3.6158,3.6146,3.6163,3.6141,3.6143,3.617,3.6176,3.6181,3.6183,3.6112,0,0,0,0,0,3.6289,3.6289,3.6265,3.6276,3.6271,3.6248,3.6245,3.6229,3.6216,3.6211,3.6195,3.6184,3.618,3.6177,3.6172,3.6185,3.618,3.6194,3.6199,3.6203,3.6206,3.6212,3.6218,3.6156,3.6156,3.6156,0,0,3.631,3.6295,3.6296,3.6284,3.6274,3.6274,3.6244,3.6245,3.6245,3.6211,3.6215,3.6203,3.6188,3.6197,3.62,3.6188,3.6222,3.6207,3.621,3.621,3.6215,3.6221,3.6226,3.6158,3.6158,3.6157,0,0,3.6348,3.6337,3.6345,3.6335,3.632,3.6305,3.6307,3.6286,3.6277,3.628,3.6255,3.6255,3.6248,3.6239,3.6233,3.6269,3.6249,3.6268,3.6295,3.6301,3.6306,3.631,3.6323,3.6328,3.627,3.627,3.627,0,3.6375,3.6375,3.6351,3.6354,3.6349,3.632,3.6328,3.632,3.6304,3.6301,3.6288,3.628,3.6268,3.6274,3.6283,3.628,3.6281,3.627,3.6308,3.6311,3.6315,3.6327,3.6332,3.6272,3.6272,3.6272,3.6272,0,3.6409,3.6409,3.6418,3.6404,3.64,3.6405,3.6383,3.6382,3.6366,3.6352,3.6356,3.634,3.6332,3.6332,3.6317,3.6337,3.633,3.6313,3.6289,3.6324,3.6334,3.6338,3.6276,3.6275,3.6274,3.6274,0,0,3.647,3.6444,3.6447,3.6441,3.6423,3.6422,3.6427,3.6419,3.6419,3.6409,3.6412,3.6408,3.6392,3.6386,3.6369,3.6375,3.6404,3.6357,3.6356,3.6366,3.6426,3.6438,3.6444,3.6392,3.6393,3.6393,3.6427,0,3.6504,3.651,3.649,3.6501,3.6501,3.6474,3.6478,3.6467,3.6454,3.6452,3.6437,3.6435,3.6414,3.641,3.6415,3.64,3.6416,3.6397,3.6394,3.6394,3.6398,3.6449,3.6463,3.6495,3.6431,3.6432,3.6432,0,3.6544,3.6537,3.6549,3.6531,3.653,3.6534,3.6525,3.6524,3.6511,3.6502,3.6495,3.6476,3.6479,3.6458,3.6462,3.6449,3.6447,3.6439,3.644,3.6438,3.6415,3.6449,3.6505,3.651,3.6438,3.6438,3.6437,0,3.6587,3.6581,3.6587,3.6583,3.6562,3.6565,3.6557,3.6543,3.654,3.6533,3.653,3.6523,3.6519,3.6515,3.6494,3.648,3.65,3.6477,3.6492,3.6493,3.6497,3.6497,3.6553,3.6496,3.6496,3.6496,3.6496,0,3.6627,3.6635,3.6606,3.661,3.6619,3.6595,3.6604,3.6593,3.6581,3.6582,3.6558,3.656,3.6533,3.6532,3.6516,3.6522,3.652,3.6512,3.6508,3.6514,3.6515,3.6511,3.6508,3.6497,3.6497,3.6497,3.6497,0,3.6676,3.6657,3.6662,3.6642,3.6638,3.6645,3.6628,3.663,3.6617,3.6618,3.6617,3.6595,3.6593,3.6572,3.6564,3.6554,3.6565,3.6557,3.657,3.6566,3.6583,3.6581,3.6638,3.6644,3.6584,3.6585,3.6586,0,3.6702,3.6708,3.6689,3.6688,3.6681,3.668,3.6677,3.6655,3.6652,3.6639,3.6644,3.6639,3.6634,3.6631,3.6614,3.6608,3.6599,3.6619,3.6598,3.6604,3.6599,3.6599,3.6599,3.6624,3.6624,3.6625,3.6626,0,3.675,3.6741,3.6738,3.6732,3.6729,3.6723,3.6715,3.6716,3.6691,3.669,3.6687,3.6683,3.6676,3.6672,3.6663,3.6654,3.6636,3.6633,3.6636,3.6642,3.6649,3.6645,3.6581,3.6631,3.6631,3.663,3.663,3.663,3.6788,3.6792,3.678,3.6777,3.6769,3.6763,3.6765,3.6752,3.6749,3.6742,3.6729,3.6728,3.6716,3.6703,3.6696,3.6695,3.6684,3.6688,3.6689,3.6691,3.6694,3.665,3.6693,3.6693,3.6693,3.6692,3.6692,0,3.6835,3.6826,3.6824,3.6815,3.6813,3.6797,3.6788,3.6787,3.6787,3.6777,3.6773,3.677,3.6766,3.675,3.6744,3.6747,3.6738,3.6746,3.6745,3.6743,3.6704,3.6702,3.6753,3.6753,3.6753,3.6753,3.6753,3.6753,3.6859,3.6865,3.6855,3.6857,3.6847,3.6847,3.6843,3.6837,3.683,3.6828,3.6825,3.6814,3.6802,3.6796,3.6791,3.6787,3.6785,3.6796,3.6788,3.6752,3.6746,3.674,3.6738,3.6796,3.6796,3.6828,3.6828,3.6828]}]]